Location: Killam
(52.7910°N, 111.8608°W)
Time: 23:12:05
(UTC+00:00)

A-11 Canister half - All Passes

Search period start: 16 February 2026 00:00
Search period end: 26 February 2026 00:00
Orbit: 1525 x 1682 km, 47.3° (Epoch: 16 February)

Date Brightness Start Highest point End Pass type
(mag) Time Alt. Az. Time Alt. Az. Time Alt. Az.
16 Feb - 00:02:29 10° SSW 00:10:27 33° SE 00:18:23 10° E daylight
16 Feb - 02:05:07 10° WSW 02:14:10 58° SSE 02:23:14 10° E visible
16 Feb - 04:09:22 10° W 04:18:27 61° S 04:27:38 10° ESE visible
16 Feb - 06:14:04 10° W 06:22:20 37° SSW 06:30:44 10° SSE visible
16 Feb - 08:21:17 10° WSW 08:25:05 13° SW 08:28:56 10° SSW night (unlit)
16 Feb - 23:40:49 10° SSW 23:48:42 32° SE 23:56:31 10° E daylight
17 Feb - 01:43:20 10° WSW 01:52:22 57° SSE 02:01:25 10° E visible
17 Feb - 03:47:34 10° W 03:56:39 61° S 04:05:50 10° ESE visible
17 Feb - 05:52:15 10° W 06:00:34 39° SSW 06:09:01 10° SSE visible
17 Feb - 07:59:07 10° W 08:03:23 14° SW 08:07:41 10° SSW visible
17 Feb - 23:19:10 10° SSW 23:26:57 31° SE 23:34:40 10° E daylight
18 Feb - 01:21:33 10° WSW 01:30:35 56° SSE 01:39:35 10° E visible
18 Feb - 03:25:45 10° W 03:34:51 62° S 03:44:01 10° ESE visible
18 Feb - 05:30:24 10° W 05:38:48 40° SSW 05:47:19 10° SSE visible
18 Feb - 07:37:00 10° W 07:41:40 15° SW 07:46:23 10° SSW visible
18 Feb - 22:57:32 10° SSW 23:05:13 29° SE 23:12:48 10° E daylight
19 Feb - 00:59:46 10° WSW 01:08:47 56° SSE 01:17:46 10° E daylight
19 Feb - 03:03:56 10° W 03:13:03 62° S 03:22:13 10° ESE visible
19 Feb - 05:08:34 10° W 05:17:01 41° SSW 05:25:35 10° SE visible
19 Feb - 07:14:57 10° W 07:19:57 16° SW 07:25:01 10° SSW visible
19 Feb - 22:35:54 10° SSW 22:43:28 28° SE 22:50:56 10° E daylight
20 Feb - 00:38:00 10° SW 00:47:00 55° SSE 00:55:57 10° E daylight
20 Feb - 02:42:07 10° W 02:51:15 63° S 03:00:24 10° ESE visible
20 Feb - 04:46:45 10° W 04:55:15 42° SSW 05:03:52 10° SE visible
20 Feb - 06:52:54 10° W 06:58:14 17° SW 07:03:37 10° SSW visible
20 Feb - 22:14:17 10° S 22:21:43 27° SE 22:29:03 10° E daylight
21 Feb - 00:16:13 10° SW 00:25:12 54° SSE 00:34:07 10° E daylight
21 Feb - 02:20:18 10° W 02:29:26 63° S 02:38:36 10° ESE visible
21 Feb - 04:24:55 10° W 04:33:29 44° SSW 04:42:08 10° SE visible
21 Feb - 06:30:54 10° W 06:36:31 18° SW 06:42:12 10° SSW visible
21 Feb - 21:52:40 10° S 21:59:58 26° SE 22:07:11 10° E daylight
21 Feb - 23:54:26 10° SW 00:03:25 52° SSE 00:12:18 10° E daylight
22 Feb - 01:58:29 10° W 02:07:39 63° S 02:16:47 10° ESE visible
22 Feb - 04:03:05 10° W 04:11:42 45° SSW 04:20:24 10° SE visible
22 Feb - 06:08:55 10° W 06:14:47 19° SW 06:20:44 10° S visible
22 Feb - 21:31:04 10° S 21:38:13 25° SE 21:45:17 10° E daylight
22 Feb - 23:32:40 10° SW 23:41:38 51° SSE 23:50:29 10° E daylight
23 Feb - 01:36:40 10° W 01:45:50 63° S 01:54:58 10° ESE visible
23 Feb - 03:41:16 10° W 03:49:56 46° SSW 03:58:39 10° SE visible
23 Feb - 05:46:57 10° W 05:53:04 20° SW 05:59:14 10° S visible
23 Feb - 21:09:29 10° S 21:16:29 24° SE 21:23:23 10° E daylight
23 Feb - 23:10:54 10° SW 23:19:50 50° SSE 23:28:40 10° E daylight
24 Feb - 01:14:51 10° W 01:24:02 64° S 01:33:10 10° ESE visible
24 Feb - 03:19:25 10° W 03:28:09 47° SSW 03:36:55 10° SE visible
24 Feb - 05:25:01 10° W 05:31:20 21° SW 05:37:44 10° S visible
24 Feb - 20:47:54 10° S 20:54:45 23° SE 21:01:28 10° E daylight
24 Feb - 22:49:07 10° SW 22:58:03 49° SSE 23:06:51 10° E daylight
25 Feb - 00:53:01 10° WSW 01:02:13 64° S 01:11:21 10° ESE daylight
25 Feb - 02:57:36 10° W 03:06:22 48° SSW 03:15:10 10° SE visible
25 Feb - 05:03:04 10° W 05:09:36 22° SW 05:16:13 10° S visible
25 Feb - 20:26:22 10° S 20:33:01 22° SE 20:39:34 10° E daylight
25 Feb - 22:27:21 10° SW 22:36:16 48° SSE 22:45:02 10° E daylight
